User: anonymous   Login
Location: State Line Observation Field
(36.5320°N, 77.5360°W)
Time: 15:32:45
(UTC-04:00)
Language:

PCSat - Orbit

View from above orbital plane
View from above orbital plane
View from above satellite
View from above satellite

Ground track
Ground track

The orbit data is extracted from the following two-line orbital elements,

1 26931U 01043C   21136.92776643 -.00000024  00000-0  22379-4 0  9990
2 26931  67.0525   1.8000 0006784 262.4650  97.5681 14.30618262 24721
Epoch (UTC): 16 May 2021 22:15:59
Eccentricity: 0.0006784
inclination: 67.0525°
perigee height: 785 km
apogee height: 794 km
right ascension of ascending node: 1.8000°
argument of perigee: 262.4650°
revolutions per day: 14.30618262
mean anomaly at epoch: 97.5681°
orbit number at epoch: 2472

The dashed part of the orbit path shows where the satellite is in the earth's shadow,  

DLR